Home > Weather > Khabarovsk > Past weeks

Flag for Russia Past Weather in Khabarovsk, Russia — Yesterday and Last 2 Weeks

Now
52 °F

Passing clouds.


Feels Like: 47 °F
Forecast: 51 / 67 °F
Wind: 13 mph from West

Location: Habarovsk

Current Time: Aug 26, 2016 at 4:50:00 AM

Latest Report: Aug 26, 2016 at 4:30 AM


Visibility: N/A

Pressure: 29.47 "Hg

Humidity: 88%

Dew Point: 48 °F

Location of KhabarovskLocation

Past Weather in Khabarovsk — Graph

°F

Khabarovsk Temperature Yesterday

Maximum temperature yesterday: 68 °F (at 12:00 AM)
Minimum temperature yesterday: 54 °F (at 11:00 PM)
Average temperature yesterday: 63 °F

High & Low Weather Summary for the Past Weeks

 TemperatureHumidityPressure
High86 °F (Aug 11, 5:00 PM)100% (Aug 12, 10:30 PM)29.92 "Hg (Aug 12, 10:30 PM)
Low52 °F (Aug 26, 12:00 AM)39% (Aug 20, 3:00 PM)29.39 "Hg (Aug 25, 10:30 AM)
Average69 °F82%29.67 "Hg
* Reported Aug 11 3:00 AM — Aug 26 3:30 AM, Khabarovsk, Weather by CustomWeather, © 2016

Note: Actual official high and low records may vary slightly from our data, if they occured in-between our weather recording intervals... More about our weather records

Advertising

Khabarovsk Weather History for the Previous 24 Hours

Scroll right to see more
 ConditionsComfort  
Time TempWeatherWind HumidityBarometerVisibility
3:30 AM
Fri, Aug 26
52 °FPassing clouds.15 mph88%29.47 "HgN/A
3:00 AM52 °FPassing clouds.17 mph82%29.47 "HgN/A
2:30 AM52 °FPassing clouds.15 mph82%29.47 "HgN/A
2:00 AM52 °FPassing clouds.15 mph82%29.47 "HgN/A
1:30 AM52 °FPassing clouds.15 mph82%29.47 "HgN/A
1:00 AM52 °FPassing clouds.17 mph88%29.47 "HgN/A
12:30 AM52 °FPassing clouds.13 mph88%29.47 "HgN/A
12:00 AM52 °FClear.10 mph88%29.47 "Hg10 mi
11:30 PM
Thu, Aug 25
54 °FClear.13 mph82%29.47 "Hg10 mi
11:00 PM54 °FClear.15 mph82%29.47 "Hg10 mi
10:30 PM55 °FClear.13 mph77%29.47 "Hg10 mi
10:00 PM55 °FClear.13 mph72%29.47 "Hg10 mi
9:30 PM57 °FClear.17 mph67%29.47 "Hg10 mi
9:00 PM57 °FClear.15 mph67%29.47 "Hg10 mi
8:30 PM59 °FClear.13 mph82%29.47 "Hg10 mi
8:00 PM59 °FPassing clouds.15 mph82%29.47 "HgN/A
7:30 PM59 °FScattered clouds.8 mph82%29.45 "HgN/A
7:00 PM59 °FScattered clouds.13 mph88%29.47 "HgN/A
6:30 PM61 °FPartly sunny.13 mph83%29.47 "HgN/A
6:00 PM59 °FCool.N/A82%29.47 "HgN/A
5:30 PM57 °FBroken clouds.15 mph94%29.47 "HgN/A
5:00 PM57 °FBroken clouds.13 mph88%29.47 "HgN/A
4:30 PM59 °FSprinkles. Broken clouds.13 mph88%29.45 "HgN/A
4:00 PM59 °FSprinkles. Broken clouds.10 mph88%29.45 "HgN/A
3:30 PM59 °FSprinkles. Broken clouds.10 mph94%29.45 "HgN/A
3:00 PM61 °FCool.N/A88%29.42 "HgN/A
2:30 PM63 °FSprinkles. Broken clouds.13 mph83%29.42 "HgN/A
2:00 PM63 °FSprinkles. Broken clouds.10 mph88%29.42 "HgN/A
1:30 PM63 °FSprinkles. Partly sunny.13 mph88%29.42 "HgN/A
1:00 PM63 °FSprinkles. Partly sunny.10 mph88%29.42 "HgN/A
12:30 PM63 °FSprinkles. Broken clouds.10 mph88%29.42 "HgN/A
12:00 PM61 °FSprinkles. Broken clouds.13 mph94%29.39 "HgN/A
11:30 AM63 °FSprinkles. Mostly cloudy.15 mph94%29.39 "HgN/A
11:00 AM68 °FSprinkles. Mostly cloudy.13 mph94%29.39 "HgN/A
10:30 AM68 °FSprinkles. Mostly cloudy.13 mph94%29.39 "HgN/A
10:00 AM66 °FSprinkles. Mostly cloudy.6 mph100%29.42 "HgN/A
9:30 AM66 °FSprinkles. Mostly cloudy.6 mph100%29.42 "HgN/A
9:00 AM66 °FSprinkles. Scattered clouds.6 mph100%29.42 "HgN/A
8:30 AM66 °FSprinkles. Scattered clouds.6 mph100%29.42 "HgN/A
8:00 AM66 °FSprinkles. Scattered clouds.6 mph100%29.45 "HgN/A
7:30 AM66 °FSprinkles. Partly sunny.6 mph94%29.45 "HgN/A
7:00 AM66 °FSprinkles. Partly sunny.3 mph94%29.45 "HgN/A
6:30 AM66 °FSprinkles. Partly sunny.3 mph94%29.45 "HgN/A
6:00 AM66 °FSprinkles. Passing clouds.6 mph94%29.47 "HgN/A
5:30 AM66 °FSprinkles. Passing clouds.6 mph94%29.47 "HgN/A
5:00 AM66 °FSprinkles. Passing clouds.6 mph94%29.47 "HgN/A
4:30 AM66 °FPassing clouds.3 mph88%29.47 "HgN/A
4:00 AM68 °FSprinkles. Passing clouds.6 mph83%29.47 "HgN/A
Weather by CustomWeather, © 2016

See weather overviewHow to use our weather pages